Погода в Коноплянке

Россия / Тамбовская область     52°17′32″N   42°33′16″E
темп.,
°C
ветер,
м/с
пор.,
м/с
влажн.,
%
обл.,
%
осадки,
мм/ч
давл.,
гПа
погр.,
м
8 мая, сб
сб800:00+6всв228980 0.0 101718
03:00+5в118860 0.0 101810
06:00+6в128466 0.0 101771
09:00+11вюв3461100 0.0 1016631
12:00+15ююв454825 0.0 10141044
15:00+17ю6848100 0.0 10121230
18:00+15ююв61263100 0.0 1009602
21:00+14ююв71670100 0.3 1008535
9 мая, вс
вс900:00+12ююз51192100 0.1 1008360
03:00+11юз3797100 0.4 1008280
06:00+9з6990100 0.2 1010511
09:00+6з5889100 1.7 1012591
12:00+7зсз5787100 1.3 1013694
15:00+7сз5887100 2.4 1015810
18:00+7ссз61084100 0.2 1017848
21:00+6ссз61284100 0.2 1019730
10 мая, пн
пн1000:00+6ссз61384100 0.0 1020691
03:00+5с71485100 0.0 1021750
06:00+5с81683100 0.0 1022796
09:00+9ссв101670100 0.0 10231053
12:00+8ссв91774100 0.0 1022883
15:00+8ссв101776100 0.2 1022743
18:00+9св91884100 0.8 1022720
21:00+9св91884100 1.5 1023614
11 мая, вт
вт1100:00+9св91884100 0.0 1022588
03:00+8св81788100 0.3 1022543
06:00+8св81791100 1.4 1022535
09:00+9св71694100 4.4 1023628
12:00+12всв61086100 1.4 1024668
15:00+13вюв3692100 1.9 1024221
18:00+12юв2298100 5.9 102365
21:00+11ююв1298100 15.3 102447
12 мая, ср
ср1200:00+9с1197100 3.5 102443
03:00+8всв229532 3.6 102423
06:00+10св2497100 0.6 1024143
09:00+11с239996 4.6 1023106
12:00+15св399298 0.9 1022440
15:00+19в8137519 1.4 10211163
18:00+18вюв6127755 0.8 1021631
21:00+15в5128891 1.3 1021305